St. Johnsbury, VT

4:59 PM EDT on September 20, 2017 (GMT -0400)
St. Johnsbury

Weather History for K1V4 - October, 2011

Change the Weather History Date:

Thursday, October 20, 2011

  Actual Average Record
Temperature  
Mean Temperature 60 °F 46 °F  
Max Temperature 69 °F 56 °F 77 °F (1965)
Min Temperature 50 °F 35 °F 13 °F (1972)
Degree Days  
Heating Degree Days 5 19  
Month to date heating degree days 242 316  
Since 1 July heating degree days 402 550  
Cooling Degree Days 0 0  
Month to date cooling degree days 0 0  
Year to date cooling degree days 375 432  
Growing Degree Days 10 (Base 50)    
Moisture  
Dew Point 51 °F    
Average Humidity 74    
Maximum Humidity 89    
Minimum Humidity 58    
Precipitation  
Precipitation 0.05 in 0.13 in 1.43 in (1975)
Month to date precipitation 3.22 2.55  
Year to date precipitation 45.45 31.70  
Sea Level Pressure  
Sea Level Pressure 29.46 in    
Wind  
Wind Speed - (North)    
Max Wind Speed -    
Max Gust Speed -    
T = Trace of Precipitation, MM = Missing Value Source: NWS Daily Summary

Daily Weather History Graph

Daily Weather History Graph

Search for Another Location

Airport or City:

Trip Planner

Search our weather history database for the weather conditions in past years. The results will help you decide how hot, cold, wet, or windy it might be!

Date:

Astronomy

Oct. 20, 2011 Rise Set
Actual Time 7:09 AM EDT 5:55 PM EDT
Civil Twilight 6:39 AM EDT 6:25 PM EDT
Nautical Twilight 6:05 AM EDT 6:59 PM EDT
Astronomical Twilight 5:32 AM EDT 7:32 PM EDT
Moon No Moon Rise 2:18 PM EDT
Length of Visible Light 11h 45m
Length of Day
10h 46m
Last Quarter, 44% of the Moon is Illuminated
Oct 20
Last Quarter
Oct 26
New
Nov 2
First Quarter
Nov 10
Full
Nov 18
Last Quarter

Hourly Weather History & Observations

Time (EDT) Temp. Dew Point Humidity Pressure Visibility Wind Dir Wind Speed Gust Speed Precip Events Conditions
12:54 AM 53.1 °F 48.9 °F 86% 29.65 in - North - - N/A   Unknown
1:54 AM 55.0 °F 50.0 °F 83% 29.61 in - North - - N/A   Unknown
2:54 AM 57.9 °F 50.0 °F 75% 29.57 in - North - - N/A   Unknown
3:54 AM 55.0 °F 51.1 °F 86% 29.55 in - North - - 0.03 in   Unknown
4:54 AM 55.0 °F 50.0 °F 83% 29.55 in - North - - N/A   Unknown
5:54 AM 55.9 °F 50.0 °F 80% 29.52 in - North - - N/A   Unknown
6:54 AM 55.9 °F 50.0 °F 80% 29.50 in - North - - N/A   Unknown
7:54 AM 55.9 °F 50.0 °F 80% 29.51 in - North - - N/A   Unknown
8:54 AM 57.9 °F 51.1 °F 78% 29.47 in - North - - N/A   Unknown
9:54 AM 62.1 °F 52.0 °F 70% 29.41 in - North - - N/A   Unknown
10:54 AM 64.9 °F 53.1 °F 65% 29.42 in - North - - N/A   Unknown
11:54 AM 64.0 °F 53.1 °F 67% 29.39 in - North - - N/A   Unknown
12:54 PM 63.0 °F 55.9 °F 78% 29.37 in - North - - N/A   Unknown
1:54 PM 66.9 °F 57.9 °F 73% 29.34 in - North - - N/A   Unknown
2:54 PM 66.0 °F 55.0 °F 68% 29.35 in - North - - N/A   Unknown
3:54 PM 66.0 °F 52.0 °F 60% 29.34 in - North - - N/A   Unknown
4:54 PM 64.0 °F 52.0 °F 65% 29.35 in - North - - N/A   Unknown
5:54 PM 62.1 °F 52.0 °F 70% 29.37 in - North - - N/A   Unknown
6:54 PM 61.0 °F 50.0 °F 67% 29.39 in - North - - N/A   Unknown
7:54 PM 59.0 °F 48.9 °F 69% 29.42 in - North - - N/A   Unknown
8:54 PM 57.9 °F 48.0 °F 70% 29.46 in - North - - N/A   Unknown
9:54 PM 57.0 °F 48.0 °F 72% 29.49 in - North - - N/A   Unknown
10:54 PM 53.1 °F 50.0 °F 89% 29.52 in - North - - 0.02 in   Unknown
11:54 PM 52.0 °F 45.0 °F 77% 29.55 in - North - - N/A   Unknown